When you browse on this site, cookies collect data to enhance your experience and personalize the content and advertising you see.
Visit our Privacy Policy to learn more. By continuing to use the site, you agree to this use of cookies and data.
  • In Hungary
  • List of Countries
  • For 7 days
  • Water Temperature
  • Satellite Maps
  • Weather Map
  • News
  • Weather Widgets
  • user-avatar
    Login

    Hourly Weather Akusha

    Today, 16 July, Tuesday

    Time Temperature Precipitation Wind Pressure Humidity
    00:00 +13°C° 0 mm 1 mps 612 mmHg 67%
    01:00 +13°C° 0 mm 1 mps 612 mmHg 70%
    02:00 +13°C° 0 mm 1 mps 612 mmHg 73%
    03:00 +12°C° 0 mm 1 mps 612 mmHg 76%
    04:00 +13°C° 0 mm 1 mps 612 mmHg 78%
    05:00 +14°C° 0 mm 1 mps 612 mmHg 79%
    06:00 +14°C° 0 mm 1 mps 613 mmHg 80%
    07:00 +16°C° 0 mm 1 mps 613 mmHg 77%
    08:00 +18°C° 0 mm 1 mps 614 mmHg 75%
    09:00 +18°C° 0 mm 2 mps 614 mmHg 72%
    10:00 +19°C° 0.1 mm 2 mps 614 mmHg 73%
    11:00 +19°C° 0.1 mm 2 mps 614 mmHg 74%
    12:00 +19°C° 0.1 mm 2 mps 614 mmHg 75%
    13:00 +19°C° 0.1 mm 2 mps 614 mmHg 76%
    14:00 +19°C° 0.1 mm 2 mps 614 mmHg 77%
    15:00 +19°C° 0.1 mm 2 mps 614 mmHg 79%
    16:00 +19°C° 0 mm 1 mps 614 mmHg 80%
    17:00 +19°C° 0 mm 1 mps 614 mmHg 81%
    18:00 +19°C° 0 mm 1 mps 614 mmHg 82%
    19:00 +18°C° 0 mm 1 mps 614 mmHg 84%
    20:00 +16°C° 0 mm 1 mps 614 mmHg 85%
    21:00 +14°C° 0 mm 1 mps 614 mmHg 87%
    22:00 +14°C° 0 mm 1 mps 614 mmHg 87%
    23:00 +14°C° 0 mm 1 mps 614 mmHg 86%

    Tomorrow, 17 July, Wednesday

    Time Temperature Precipitation Wind Pressure Humidity
    00:00 +14°C° 0 mm 1 mps 614 mmHg 85%
    01:00 +14°C° 0 mm 1 mps 614 mmHg 86%
    02:00 +14°C° 0 mm 1 mps 614 mmHg 86%
    03:00 +13°C° 0 mm 1 mps 614 mmHg 87%
    04:00 +14°C° 0 mm 1 mps 614 mmHg 86%
    05:00 +14°C° 0 mm 1 mps 615 mmHg 85%
    06:00 +14°C° 0 mm 0 mps 615 mmHg 84%
    07:00 +16°C° 0 mm 1 mps 615 mmHg 82%
    08:00 +16°C° 0 mm 1 mps 616 mmHg 80%
    09:00 +17°C° 0 mm 2 mps 616 mmHg 79%
    10:00 +17°C° 0 mm 2 mps 616 mmHg 78%
    11:00 +18°C° 0 mm 2 mps 616 mmHg 78%
    12:00 +18°C° 0 mm 2 mps 616 mmHg 78%
    13:00 +18°C° 0 mm 2 mps 616 mmHg 78%
    14:00 +18°C° 0 mm 2 mps 616 mmHg 78%
    15:00 +18°C° 0 mm 2 mps 616 mmHg 78%
    16:00 +18°C° 0 mm 2 mps 615 mmHg 79%
    17:00 +18°C° 0 mm 1 mps 615 mmHg 81%
    18:00 +18°C° 0 mm 1 mps 615 mmHg 83%
    19:00 +16°C° 0 mm 1 mps 615 mmHg 81%
    20:00 +15°C° 0 mm 1 mps 614 mmHg 84%
    21:00 +12°C° 0 mm 0 mps 614 mmHg 87%
    22:00 +13°C° 0 mm 1 mps 614 mmHg 86%
    23:00 +13°C° 0 mm 1 mps 614 mmHg 85%

    Day after tomorrow, 18 July, Thursday

    Time Temperature Precipitation Wind Pressure Humidity
    00:00 +13°C° 0 mm 1 mps 614 mmHg 84%
    01:00 +13°C° 0 mm 1 mps 613 mmHg 84%
    02:00 +13°C° 0 mm 1 mps 613 mmHg 83%
    03:00 +13°C° 0 mm 1 mps 613 mmHg 83%
    04:00 +13°C° 0 mm 1 mps 614 mmHg 81%
    05:00 +14°C° 0 mm 1 mps 614 mmHg 79%
    06:00 +15°C° 0 mm 1 mps 614 mmHg 78%
    07:00 +18°C° 0 mm 1 mps 615 mmHg 72%
    08:00 +18°C° 0 mm 2 mps 616 mmHg 67%
    09:00 +20°C° 0 mm 2 mps 616 mmHg 61%
    10:00 +20°C° 0 mm 2 mps 616 mmHg 60%
    11:00 +21°C° 0 mm 2 mps 616 mmHg 59%
    12:00 +22°C° 0 mm 3 mps 616 mmHg 58%
    13:00 +22°C° 0 mm 3 mps 616 mmHg 58%
    14:00 +23°C° 0 mm 2 mps 616 mmHg 59%
    15:00 +23°C° 0 mm 2 mps 616 mmHg 59%
    16:00 +21°C° 0 mm 2 mps 616 mmHg 63%
    17:00 +20°C° 0 mm 2 mps 616 mmHg 68%
    18:00 +21°C° 0 mm 1 mps 615 mmHg 72%
    19:00 +19°C° 0 mm 1 mps 615 mmHg 76%
    20:00 +16°C° 0 mm 1 mps 615 mmHg 79%
    21:00 +15°C° 0 mm 1 mps 615 mmHg 82%
    22:00 +14°C° 0 mm 1 mps 615 mmHg 81%
    23:00 +14°C° 0 mm 1 mps 615 mmHg 81%

    19 July, Friday

    Time Temperature Precipitation Wind Pressure Humidity
    00:00 +14°C° 0 mm 1 mps 615 mmHg 80%
    01:00 +14°C° 0 mm 1 mps 615 mmHg 80%
    02:00 +14°C° 0 mm 1 mps 615 mmHg 80%
    03:00 +14°C° 0 mm 1 mps 615 mmHg 81%
    04:00 +14°C° 0 mm 1 mps 615 mmHg 80%
    05:00 +15°C° 0 mm 1 mps 616 mmHg 79%
    06:00 +16°C° 0 mm 1 mps 617 mmHg 78%
    07:00 +19°C° 0 mm 1 mps 617 mmHg 73%
    08:00 +20°C° 0 mm 1 mps 618 mmHg 68%
    09:00 +20°C° 0 mm 2 mps 619 mmHg 63%
    10:00 +21°C° 0 mm 2 mps 619 mmHg 63%
    11:00 +21°C° 0 mm 2 mps 619 mmHg 62%
    12:00 +22°C° 0 mm 3 mps 619 mmHg 62%
    13:00 +21°C° 0.1 mm 3 mps 619 mmHg 63%
    14:00 +21°C° 0.1 mm 3 mps 619 mmHg 64%
    15:00 +20°C° 0.1 mm 3 mps 618 mmHg 65%
    16:00 +20°C° 0 mm 2 mps 618 mmHg 68%
    17:00 +19°C° 0 mm 2 mps 618 mmHg 70%
    18:00 +20°C° 0 mm 1 mps 618 mmHg 73%
    19:00 +19°C° 0 mm 1 mps 618 mmHg 75%
    20:00 +18°C° 0 mm 1 mps 618 mmHg 78%
    21:00 +14°C° 0 mm 0 mps 618 mmHg 80%
    22:00 +15°C° 0 mm 1 mps 618 mmHg 80%
    23:00 +15°C° 0 mm 1 mps 618 mmHg 80%

    20 July, Saturday

    Time Temperature Precipitation Wind Pressure Humidity
    00:00 +15°C° 0 mm 1 mps 618 mmHg 81%
    01:00 +14°C° 0 mm 1 mps 618 mmHg 81%
    02:00 +14°C° 0 mm 1 mps 618 mmHg 82%
    03:00 +14°C° 0 mm 1 mps 618 mmHg 82%
    04:00 +15°C° 0 mm 1 mps 619 mmHg 81%
    05:00 +16°C° 0 mm 1 mps 619 mmHg 79%
    06:00 +16°C° 0 mm 1 mps 620 mmHg 78%
    07:00 +19°C° 0 mm 1 mps 620 mmHg 72%
    08:00 +19°C° 0 mm 2 mps 621 mmHg 66%
    09:00 +20°C° 0 mm 2 mps 621 mmHg 61%
    10:00 +21°C° 0 mm 2 mps 622 mmHg 60%
    11:00 +21°C° 0 mm 3 mps 622 mmHg 60%
    12:00 +21°C° 0 mm 3 mps 622 mmHg 59%
    13:00 +21°C° 0 mm 3 mps 622 mmHg 60%
    14:00 +21°C° 0 mm 3 mps 621 mmHg 60%
    15:00 +21°C° 0 mm 3 mps 621 mmHg 61%
    16:00 +20°C° 0 mm 3 mps 621 mmHg 63%
    17:00 +20°C° 0 mm 2 mps 621 mmHg 66%
    18:00 +19°C° 0 mm 2 mps 621 mmHg 69%
    19:00 +17°C° 0 mm 2 mps 620 mmHg 71%
    20:00 +16°C° 0 mm 1 mps 620 mmHg 74%
    21:00 +14°C° 0 mm 1 mps 620 mmHg 76%
    22:00 +14°C° 0 mm 1 mps 620 mmHg 76%
    23:00 +14°C° 0 mm 1 mps 620 mmHg 76%

    21 July, Sunday

    Time Temperature Precipitation Wind Pressure Humidity
    00:00 +14°C° 0 mm 1 mps 620 mmHg 77%
    01:00 +14°C° 0 mm 1 mps 620 mmHg 77%
    02:00 +14°C° 0 mm 1 mps 619 mmHg 77%
    03:00 +14°C° 0 mm 1 mps 619 mmHg 77%
    04:00 +15°C° 0 mm 1 mps 620 mmHg 76%
    05:00 +15°C° 0 mm 1 mps 620 mmHg 75%
    06:00 +16°C° 0 mm 1 mps 621 mmHg 74%
    07:00 +18°C° 0 mm 2 mps 621 mmHg 70%
    08:00 +19°C° 0 mm 2 mps 621 mmHg 65%
    09:00 +20°C° 0 mm 3 mps 622 mmHg 60%
    10:00 +21°C° 0 mm 3 mps 622 mmHg 59%
    11:00 +22°C° 0 mm 3 mps 622 mmHg 59%
    12:00 +23°C° 0 mm 4 mps 622 mmHg 58%
    13:00 +22°C° 0 mm 4 mps 622 mmHg 59%
    14:00 +22°C° 0 mm 4 mps 622 mmHg 59%
    15:00 +22°C° 0 mm 4 mps 621 mmHg 60%
    16:00 +21°C° 0 mm 3 mps 621 mmHg 63%
    17:00 +20°C° 0 mm 2 mps 621 mmHg 66%
    18:00 +19°C° 0 mm 2 mps 620 mmHg 69%
    19:00 +18°C° 0 mm 2 mps 620 mmHg 71%
    20:00 +17°C° 0 mm 2 mps 619 mmHg 73%
    21:00 +15°C° 0 mm 2 mps 619 mmHg 75%
    22:00 +15°C° 0 mm 1 mps 619 mmHg 75%
    23:00 +15°C° 0 mm 1 mps 619 mmHg 75%
    Show more